This is the latest recevied weather packets stored in our database for station/object K0TNT-10. If no packets are shown the sender has not sent any weather packets the latest 10 day(s).
| Time | Temp. | Humidity | Pressure | Rain* | Wind** | Luminosity | Snow |
|---|---|---|---|---|---|---|---|
| 1777627862 | 3.89° C | 91% | 1019.8 hPa | 0 mm | - | - | - |
| 1777626060 | 3.89° C | 88% | 1019.9 hPa | 0 mm | - | - | - |
| 1777622421 | 5° C | 85% | 1019.8 hPa | 0 mm | - | - | - |
| 1777620641 | 5.56° C | 83% | 1020.3 hPa | 0 mm | - | - | - |
| 1777614345 | 8.89° C | 69% | 1020.6 hPa | 0 mm | - | - | - |
| 1777608924 | 10.56° C | 64% | 1020.4 hPa | 0 mm | - | - | - |
| 1777605355 | 11.11° C | 60% | 1019.9 hPa | 0 mm | - | - | - |
| 1777601739 | 11.67° C | 59% | 1018.7 hPa | 0 mm | - | - | - |
| 1777600830 | 12.22° C | 56% | 1018.4 hPa | 0 mm | - | - | - |
| 1777597243 | 15.56° C | 44% | 1017.5 hPa | 0 mm | - | - | - |
| 1777593619 | 16.67° C | 42% | 1017.1 hPa | 0 mm | - | - | - |
| 1777590004 | 17.22° C | 42% | 1017.1 hPa | 0 mm | - | - | - |
| 1777588211 | 18.33° C | 41% | 1017 hPa | 0 mm | - | - | - |
| 1777584664 | 19.44° C | 41% | 1016.8 hPa | 0 mm | - | - | - |
| 1777581919 | 19.44° C | 44% | 1017.1 hPa | 0 mm | - | - | - |
| 1777578322 | 19.44° C | 44% | 1017.4 hPa | 0 mm | - | - | - |
| 1777576536 | 18.33° C | 45% | 1017.6 hPa | 0 mm | - | - | - |
| 1777572057 | 18.33° C | 53% | 1018.3 hPa | 0 mm | - | - | - |
| 1777568423 | 16.11° C | 59% | 1019 hPa | 0 mm | - | - | - |
| 1777561256 | 13.33° C | 65% | 1019.8 hPa | 0 mm | - | - | - |
| 1777559402 | 13.33° C | 66% | 1019.6 hPa | 0 mm | - | - | - |
| 1777555808 | 10° C | 88% | 1019.6 hPa | 0 mm | - | - | - |
| 1777553140 | 7.78° C | 95% | 1019.1 hPa | 0 mm | - | - | - |
| 1777546848 | 5° C | 94% | 1018.9 hPa | 0 mm | - | - | - |
| 1777545921 | 5.56° C | 94% | 1019.2 hPa | 0 mm | - | - | - |
* Rain latest hour (hover to see other rain measurements)
** Current wind speed in m/s (hover to see current wind gust speed)